CDT,Max TemperatureF,Mean TemperatureF,Min TemperatureF,Max Dew PointF,MeanDew PointF,Min DewpointF,Max Humidity, Mean Humidity, Min Humidity, Max Sea Level PressureIn, Mean Sea Level PressureIn, Min Sea Level PressureIn, Max VisibilityMiles, Mean VisibilityMiles, Min VisibilityMiles, Max Wind SpeedMPH, Mean Wind SpeedMPH, Max Gust SpeedMPH,PrecipitationIn, CloudCover, Events, WindDirDegrees
2013-3-1,32,21,8,18,14,5,92,69,44,30.28,30.24,30.17,10,10,7,12,7,16,0.00,4,Snow,22
2013-3-2,30,12,-5,10,4,-9,92,68,34,30.30,30.24,30.16,10,10,10,8,2,,0.00,0,,340
2013-3-3,33,13,-7,9,1,-11,92,62,23,30.16,30.10,30.03,10,10,10,6,0,,0.00,0,,104
2013-3-4,32,21,10,21,13,3,79,62,46,30.07,30.03,29.99,10,10,10,15,5,20,0.00,7,Snow,95
2013-3-5,30,27,24,28,25,21,100,92,74,30.18,30.03,29.97,10,4,0,12,7,16,0.07,7,Snow,32
2013-3-6,32,18,3,23,17,0,93,76,51,30.33,30.29,30.18,10,10,10,13,5,17,0.00,5,,318
2013-3-7,37,15,-7,18,7,-13,93,71,41,30.40,30.36,30.33,10,10,10,7,1,,0.00,1,,225
2013-3-8,42,22,3,27,18,1,100,74,46,30.40,30.32,30.20,10,10,7,12,2,16,0.00,0,,150
2013-3-9,37,34,32,37,32,25,100,91,75,30.18,29.92,29.75,10,6,0,9,3,,0.13,7,Fog-Rain-Snow,136
2013-3-10,35,34,32,36,34,32,100,99,93,29.86,29.77,29.70,10,3,0,13,4,18,0.12,8,Fog-Rain-Snow,16
2013-3-11,32,30,28,32,30,27,100,97,86,29.78,29.68,29.62,10,7,1,12,6,16,0.01,8,Snow,337
2013-3-12,30,26,21,28,21,16,100,81,59,30.07,29.88,29.77,10,9,4,15,6,23,0.00,8,Snow,284
2013-3-13,32,21,10,16,9,5,100,63,32,30.30,30.24,30.08,10,10,10,13,6,18,0.00,0,Snow,298
2013-3-14,37,24,10,28,21,7,100,86,70,30.29,30.16,30.01,10,8,1,10,1,,0.00,5,Snow,188
2013-3-15,33,28,23,34,30,23,100,99,93,30.01,29.90,29.79,5,3,0,10,2,,0.09,6,Snow,69
2013-3-16,32,26,19,32,19,9,100,78,51,30.15,30.00,29.82,10,8,1,16,7,21,0.02,6,Snow,356
2013-3-17,32,18,3,14,8,0,92,62,38,30.25,30.15,29.98,10,10,10,12,5,20,0.00,0,,114
2013-3-18,32,24,17,30,18,10,100,85,68,29.97,29.73,29.56,10,5,0,22,7,28,0.18,6,Snow,152
2013-3-19,26,18,10,10,7,1,86,61,43,30.07,29.90,29.71,10,9,4,22,16,32,0.00,2,Snow,273
2013-3-20,19,8,-5,3,-2,-9,85,57,46,30.11,30.08,30.05,10,10,10,17,10,24,0.00,2,,292
2013-3-21,26,6,-14,9,-3,-22,92,67,43,30.09,30.05,30.01,10,10,10,12,2,16,0.00,0,,296
2013-3-22,35,15,-5,14,4,-11,92,66,38,30.07,30.04,29.99,10,10,10,9,1,,0.00,0,,274
2013-3-23,37,22,8,21,15,5,92,67,41,30.13,30.08,30.03,10,10,10,9,2,,0.00,1,,321
2013-3-24,33,30,26,23,22,21,86,70,60,30.07,29.96,29.87,10,10,10,13,4,21,0.00,7,,28
2013-3-25,35,28,21,23,20,18,86,68,52,30.16,30.02,29.93,10,10,10,14,9,21,0.00,5,,349
2013-3-26,37,26,14,27,20,12,100,71,38,30.26,30.22,30.16,10,10,10,8,2,,0.00,6,,319
2013-3-27,41,31,21,25,20,14,93,62,33,30.32,30.29,30.26,10,10,10,14,2,17,0.00,4,,290
2013-3-28,44,28,12,21,18,10,100,69,31,30.35,30.31,30.27,10,10,10,8,1,,0.00,0,,279
2013-3-29,50,32,14,27,20,14,100,68,27,30.32,30.26,30.16,10,10,10,8,1,,0.00,2,,237
2013-3-30,48,39,30,43,34,27,100,81,57,30.16,29.94,29.82,10,7,0,10,3,16,0.12,8,Fog-Rain,223
2013-3-31,39,34,30,37,28,14,100,81,41,29.96,29.80,29.75,10,5,0,17,6,30,0.00,6,Fog-Rain,273